Overview Statistics Trail Chart Weather Telemetry Raw packets
 

This is the latest recevied weather packets stored in our database for station/object N7ZAP. If no packets are shown the sender has not sent any weather packets the latest 10 day(s).

<< 79 80 81 82 83 84 85 >>
Time Temp. Humidity Pressure Rain* Wind** Luminosity Snow
1788119175 35° C 23% 1020.6 hPa 0 mm - - -
1788118875 34.44° C 23% 1020.6 hPa 0 mm - - -
1788118575 34.44° C 24% 1020.7 hPa 0 mm - - -
1788118270 35° C 24% 1020.7 hPa 0 mm - - -
1788117965 34.44° C 24% 1020.7 hPa 0 mm - - -
1788117664 33.89° C 25% 1020.7 hPa 0 mm - - -
1788117360 33.89° C 25% 1020.7 hPa 0 mm - - -
1788117056 33.33° C 24% 1020.9 hPa 0 mm - - -
1788116751 33.33° C 25% 1020.9 hPa 0 mm - - -
1788116447 33.89° C 25% 1021 hPa 0 mm - - -
1788116145 33.89° C 25% 1021.1 hPa 0 mm - - -
1788115841 33.89° C 25% 1021 hPa 0 mm - - -
1788115540 33.89° C 26% 1020.9 hPa 0 mm - - -
1788115234 33.33° C 26% 1021.2 hPa 0 mm - - -
1788114929 33.33° C 26% 1021.4 hPa 0 mm - - -
1788114630 33.33° C 26% 1021.6 hPa 0 mm - - -
1788114320 33.89° C 26% 1021.6 hPa 0 mm - - -
1788114016 34.44° C 25% 1021.6 hPa 0 mm - - -
1788113713 33.33° C 26% 1021.6 hPa 0 mm - - -
1788113412 32.78° C 28% 1021.9 hPa 0 mm - - -
1788113106 32.78° C 28% 1021.7 hPa 0 mm - - -
1788112805 32.78° C 28% 1021.9 hPa 0 mm - - -
1788112505 32.22° C 30% 1022.1 hPa 0 mm - - -
1788112201 32.22° C 30% 1022 hPa 0 mm - - -
1788111896 32.78° C 30% 1022.1 hPa 0 mm - - -

* Rain latest hour (hover to see other rain measurements)
** Current wind speed in m/s (hover to see current wind gust speed)